Starlink 35043

operational
NORAD ID: 65436 Int'l Des: 2025-194 Owner: SPXS Country: US Constellation: starlink
LEOCIRCULARRETROGRADESSO

Starlink 35043について

説明を読み込み中...

リアルタイム位置

3D地球を読み込み中...

次回通過

高度履歴

Altitude vs Time

uPlot chart will show altitude changes over time

軌道要素

1 65436U 25194C 26062.14958293 .00002486 00000-0 19797-3 0 9998
2 65436 97.6028 278.7842 0002045 79.9912 280.1543 15.01262923 28716
Epoch: Mar 3, 2026 • Age: 16 hours

現在のステータス

高度 592.2 km
速度 7.56 km/s
衛星直下点 -78.15°S, 19.42°E
打ち上げ日 Sep 3, 2025
運用期間 0.4 years
タイプ internet

技術仕様

分類 Payload
質量 575.00 kg
乾燥質量 530.00 kg
総質量 575.00 kg
長さ 0.30 m
直径 4.10 m
スパン 29.00 m
形状 Box + pan
製造者 SPXS
バスタイプ Starlink V2MO
フェーズステータス In Orbit
所有者/国 SPXS/US

大規模コンステレーション

Loading constellations...